This demonstration page uses our WeatherBlox Daily Observations layout. Learn more.

Left ArrowRight Arrow

Hourly Observations for June 24, 2022

Temp ( °F °C ) Dew Point ( °F °C ) Humidity (%) Winds ( mph kmh ) Pressure ( in mb ) Visibility ( mi km ) Precip ( " mm )
12:15 am 00:15 Clear 72 22.3 65 18.5 79 79 SSE 9 15 29.77 1008 10 16 0.00 0.00
12:35 am 00:35 Clear 73 22.6 65 18.6 78 78 SSE 8 13 29.77 1008 10 16 0.00 0.00
12:55 am 00:55 Clear 73 22.5 65 18.6 79 79 SSE 7 11 29.76 1008 10 16 0.00 0.00
1:15 am 01:15 Clear 73 22.5 66 18.7 79 79 S 5 7 29.76 1008 10 16 0.00 0.00
1:35 am 01:35 Clear 77 24.8 64 17.6 64 64 S 17 28 29.74 1007 10 16 0.00 0.00
1:55 am 01:55 Clear 77 25.1 65 18.5 67 67 S 22 35 29.74 1007 10 16 0.00 0.00
2:15 am 02:15 Clear 76 24.4 66 18.8 71 71 S 20 31 29.74 1007 10 16 0.00 0.00
2:35 am 02:35 Clear 75 23.9 65 18.5 72 72 S 21 33 29.74 1007 10 16 0.00 0.00
2:55 am 02:55 Clear 74 23.2 65 18.6 75 75 S 24 39 29.73 1007 10 16 0.00 0.00
3:15 am 03:15 Partly Cloudy 73 23 66 18.7 77 77 S 20 31 29.73 1007 10 16 0.00 0.00
3:35 am 03:35 Mostly Cloudy 74 23.1 65 18.4 75 75 S 22 35 29.72 1007 10 16 0.00 0.00
3:55 am 03:55 Partly Cloudy 72 22 66 19 83 83 SSE 17 28 29.73 1007 10 16 0.00 0.00
4:15 am 04:15 Clear 71 21.6 65 18.5 83 83 S 16 26 29.73 1007 10 16 0.00 0.00
4:35 am 04:35 Clear 71 21.6 65 18.3 82 82 S 17 28 29.73 1007 10 16 0.00 0.00
4:55 am 04:55 Clear 71 21.7 65 18.5 82 82 S 14 22 29.73 1007 10 16 0.00 0.00
5:15 am 05:15 Clear 72 22 65 18.6 81 81 SSE 15 24 29.73 1007 10 16 0.00 0.00
5:35 am 05:35 Clear 73 22.6 66 18.7 79 79 SSE 18 30 29.74 1007 10 16 0.00 0.00
5:55 am 05:55 Clear 73 22.8 65 18.6 77 77 SE 18 30 29.73 1007 10 16 0.00 0.00
6:15 am 06:15 Sunny 73 22.7 65 18.3 76 76 SE 18 30 29.74 1007 10 16 0.00 0.00
6:35 am 06:35 Sunny 72 22.1 65 18.1 78 78 SE 16 26 29.75 1007 10 16 0.00 0.00
6:55 am 06:55 Sunny 71 21.7 63 17.4 77 77 SE 16 26 29.75 1008 10 16 0.00 0.00
7:15 am 07:15 Sunny 71 21.4 63 17.1 77 77 SE 17 28 29.76 1008 10 16 0.00 0.00
7:35 am 07:35 Sunny 71 21.8 63 17.2 75 75 SE 21 33 29.76 1008 10 16 0.00 0.00
7:55 am 07:55 Sunny 71 21.8 63 17.3 76 76 SE 17 28 29.76 1008 10 16 0.00 0.00
8:15 am 08:15 Sunny 73 22.5 63 17.3 73 73 SE 23 37 29.76 1008 10 16 0.00 0.00
8:35 am 08:35 Sunny 72 22.2 64 17.5 75 75 SE 20 31 29.76 1008 10 16 0.00 0.00
8:55 am 08:55 Sunny 72 22.2 64 17.6 75 75 SE 16 26 29.76 1008 10 16 0.00 0.00
9:15 am 09:15 Sunny 73 22.7 64 18 75 75 SE 21 33 29.76 1008 10 16 0.00 0.00
9:35 am 09:35 Sunny 74 23.5 65 18.2 72 72 SE 18 30 29.75 1007 10 16 0.00 0.00
9:55 am 09:55 Sunny 76 24.6 66 18.8 70 70 SSE 21 33 29.74 1007 10 16 0.00 0.00
10:15 am 10:15 Sunny 76 24.7 66 19.1 71 71 SE 20 31 29.74 1007 10 16 0.00 0.00
10:35 am 10:35 Sunny 79 26 67 19.7 68 68 SSE 18 30 29.73 1007 10 16 0.00 0.00
10:55 am 10:55 Partly Cloudy 79 26.3 68 19.8 68 68 SE 18 30 29.73 1007 10 16 0.00 0.00
11:15 am 11:15 Mostly Cloudy 80 26.7 68 20 67 67 SSE 14 22 29.72 1007 10 16 0.00 0.00
11:35 am 11:35 Mostly Cloudy 80 26.7 68 19.9 66 66 SE 17 28 29.71 1006 10 16 0.00 0.00
11:55 am 11:55 Mostly Cloudy 81 27.1 68 20 65 65 SSE 15 24 29.71 1006 10 16 0.00 0.00
12:15 pm 12:15 Mostly Cloudy 81 27.3 67 19.7 63 63 SSE 15 24 29.71 1006 10 16 0.00 0.00
12:35 pm 12:35 Partly Cloudy 81 27.2 67 19.6 63 63 SE 13 20 29.71 1006 10 16 0.00 0.00
12:55 pm 12:55 Partly Cloudy 82 27.9 68 19.8 61 61 SSE 9 15 29.69 1006 10 16 0.00 0.00
1:15 pm 13:15 Partly Cloudy 83 28.3 67 19.6 59 59 SSE 10 17 29.69 1005 10 16 0.00 0.00
1:35 pm 13:35 Partly Cloudy 83 28.3 67 19.3 58 58 SSE 8 13 29.69 1005 10 16 0.00 0.00
1:55 pm 13:55 Sunny 83 28.6 67 19.5 58 58 ESE 10 17 29.68 1005 10 16 0.00 0.00
2:15 pm 14:15 Sunny 85 29.5 67 19.3 54 54 ESE 8 13 29.67 1005 10 16 0.00 0.00
2:35 pm 14:35 Sunny 87 30.5 67 19.7 52 52 ESE 9 15 29.65 1004 10 16 0.00 0.00
2:55 pm 14:55 Partly Cloudy 86 29.9 67 19.3 53 53 SE 12 19 29.66 1004 10 16 0.00 0.00
3:15 pm 15:15 Partly Cloudy 85 29.5 67 19.7 56 56 E 7 11 29.66 1004 10 16 0.00 0.00
3:35 pm 15:35 Partly Cloudy 86 30.2 68 19.8 54 54 E 15 24 29.65 1004 10 16 0.00 0.00
3:55 pm 15:55 Partly Cloudy 87 30.4 68 20.1 54 54 ESE 14 22 29.65 1004 10 16 0.00 0.00
4:15 pm 16:15 Partly Cloudy 87 30.5 68 20 53 53 ESE 13 20 29.63 1004 10 16 0.00 0.00
4:35 pm 16:35 Partly Cloudy 87 30.4 68 19.8 53 53 SE 12 19 29.63 1003 10 16 0.00 0.00
4:55 pm 16:55 Partly Cloudy 88 31 68 19.9 52 52 ESE 12 19 29.62 1003 10 16 0.00 0.00
5:15 pm 17:15 Sunny 88 31 69 20.7 54 54 ESE 13 20 29.62 1003 10 16 0.00 0.00
5:35 pm 17:35 Sunny 87 30.7 70 21.1 57 57 E 13 20 29.61 1003 10 16 0.00 0.00
5:55 pm 17:55 Sunny 87 30.7 71 21.4 58 58 ESE 12 19 29.61 1003 10 16 0.00 0.00
6:15 pm 18:15 Sunny 87 30.5 71 21.8 60 60 E 9 15 29.60 1003 10 16 0.00 0.00
6:35 pm 18:35 Sunny 87 30.6 71 21.8 59 59 ESE 15 24 29.59 1002 10 16 0.00 0.00
6:55 pm 18:55 Sunny 85 29.5 72 22 64 64 ESE 9 15 29.60 1002 10 16 0.00 0.00
7:15 pm 19:15 Sunny 86 30 72 22.4 64 64 E 9 15 29.60 1002 10 16 0.00 0.00
7:35 pm 19:35 Sunny 85 29.5 72 22.4 66 66 E 8 13 29.60 1002 10 16 0.00 0.00
7:55 pm 19:55 Sunny 84 29.1 73 22.6 68 68 E 8 13 29.61 1003 10 16 0.00 0.00
8:15 pm 20:15 Sunny 84 28.7 73 22.7 70 70 E 6 9 29.61 1003 10 16 0.00 0.00
8:35 pm 20:35 Sunny 84 28.7 73 22.7 70 70 E 7 11 29.59 1002 10 16 0.00 0.00
8:55 pm 20:55 Sunny 82 28 73 22.6 73 73 E 7 11 29.59 1002 10 16 0.00 0.00
9:15 pm 21:15 Clear 81 27.1 73 22.6 76 76 NE 6 9 29.62 1003 10 16 0.00 0.00
9:35 pm 21:35 Clear 80 26.5 73 22.7 80 80 ENE 7 11 29.63 1003 10 16 0.00 0.00
9:55 pm 21:55 Clear 79 25.9 73 22.8 83 83 NNE 5 7 29.66 1004 10 16 0.00 0.00
10:15 pm 22:15 Clear 78 25.5 73 23 86 86 NNE 7 11 29.67 1005 10 16 0.00 0.00
10:35 pm 22:35 Mostly Cloudy 78 25.6 73 22.8 85 85 NNE 7 11 29.67 1005 7 11 0.00 0.00
10:55 pm 22:55 Partly Cloudy 78 25.5 73 22.9 86 86 NE 7 11 29.66 1005 10 16 0.00 0.00
11:15 pm 23:15 Partly Cloudy 78 25.6 73 23 86 86 N 8 13 29.69 1006 10 16 0.00 0.00
11:35 pm 23:35 Mostly Cloudy with Thunderstorms 71 21.7 64 17.7 78 78 NW 29 46 29.79 1009 5 8 0.02 0.51
11:55 pm 23:55 Windy with Storms Likely 69 20.4 65 18.5 89 89 W 29 46 29.80 1009 4 6 0.13 3.30

Powered by AerisWeather